Hourly Data Report for December 03, 2017

TORONTO CITY
ONTARIO

43°40'00.000" N
79°24'00.000" W
112.50 m
6158355
71508
XTO

Download Data

Hourly Data (December 2017)
Hourly Data Report for December 3, 2017
TIME
LST
Temp Definition
°C
Dew Point Definition
°C
Rel Hum Definition
%
Precip. Amount Definition
mm

Wind Dir Definition
10's deg

Wind Spd Definition
km/h
Visibility Definition
km
Stn Press Definition
kPa
Hmdx Definition


Wind Chill Definition


Weather Definition


00:00 5.1 2.7 84 0.0 LegendMM LegendMM   100.64     LegendNANA
01:00 5.1 2.7 85 0.0 LegendMM LegendMM   100.60     LegendNANA
02:00 4.8 2.9 88 0.0 LegendMM LegendMM   100.61     LegendNANA
03:00 4.8 3.0 88 0.0 LegendMM LegendMM   100.63     LegendNANA
04:00 4.5 2.9 90 0.0 LegendMM LegendMM   100.60     LegendNANA
05:00 3.6 2.4 92 0.0 LegendMM LegendMM   100.56     LegendNANA
06:00 4.4 3.2 92 0.0 LegendMM LegendMM   100.58     LegendNANA
07:00 2.6 1.0 89 0.0 LegendMM LegendMM   100.61     LegendNANA
08:00 2.4 1.3 93 0.0 LegendMM LegendMM   100.66     LegendNANA
09:00 3.2 2.4 94 0.0 LegendMM LegendMM   100.68     LegendNANA
10:00 4.1 2.4 89 0.0 LegendMM LegendMM   100.73     LegendNANA
11:00 4.4 2.7 89 0.0 LegendMM LegendMM   100.74     LegendNANA
12:00 5.3 2.8 84 0.0 LegendMM LegendMM   100.71     LegendNANA
13:00 6.8 1.7 70 0.0 LegendMM LegendMM   100.69     LegendNANA
14:00 7.3 1.9 69 0.0 LegendMM LegendMM   100.67     LegendNANA
15:00 5.8 2.8 81 0.0 LegendMM LegendMM   100.70     LegendNANA
16:00 6.6 2.4 74 0.0 LegendMM LegendMM   100.78     LegendNANA
17:00 6.2 2.2 75 0.0 LegendMM LegendMM   100.81     LegendNANA
18:00 6.0 2.5 78 0.0 LegendMM LegendMM   100.90     LegendNANA
19:00 5.6 1.0 73 0.0 LegendMM LegendMM   100.97     LegendNANA
20:00 4.6 0.7 76 0.0 LegendMM LegendMM   101.01     LegendNANA
21:00 4.2 0.7 78 0.0 LegendMM LegendMM   101.03     LegendNANA
22:00 4.0 0.4 77 0.0 LegendMM LegendMM   101.02     LegendNANA
23:00 3.6 0.0 77 0.0 LegendMM LegendMM   101.05     LegendNANA

Notes on Data Quality.

Legend

  • E = Estimated
  • M = Missing
  • NA = Not Available*
  • [empty] = Indicates an unobserved value
Date modified: